Change the Weather History Date:

Saturday, August 2, 2014

  Actual Average (KCUT) Record (KCUT)
Temperature  
Mean Temperature 72 °F 66 °F  
Max Temperature 87 °F 80 °F 93 °F (1963)
Min Temperature 57 °F 52 °F 37 °F (1950)
Degree Days  
Heating Degree Days 0 2  
Month to date heating degree days 4  
Since 1 June heating degree days 285  
Since 1 July heating degree days 65  
Cooling Degree Days 7 2  
Month to date cooling degree days 4  
Year to date cooling degree days 111  
Since 1 June cooling degree days 110  
Growing Degree Days 22 (Base 50)    
Moisture  
Dew Point 39 °F    
Average Humidity 33    
Maximum Humidity 63    
Minimum Humidity 12    
Precipitation  
Precipitation 0.00 in 0.06 in 2.41 in (1953)
Month to date precipitation 0.12  
Year to date precipitation 12.89  
Sea Level Pressure  
Sea Level Pressure 30.19 in    
Wind  
Wind Speed 7 mph (NNE)    
Max Wind Speed 13 mph    
Max Gust Speed 25 mph    
Visibility 10 miles    
Events Rain    
T = Trace of Precipitation, MM = Missing Value Source: NWS Daily Summary

Daily Weather History Graph

Daily Weather History Graph

Search for Another Location

Airport or City:

Trip Planner

Search our weather history database for the weather conditions in past years. The results will help you decide how hot, cold, wet, or windy it might be!

Date:

Astronomy

Aug. 02, 2014 Rise Set
Actual Time 5:46 AM MDT 8:19 PM MDT
Civil Twilight 5:14 AM MDT 8:52 PM MDT
Nautical Twilight 4:33 AM MDT 9:32 PM MDT
Astronomical Twilight 3:46 AM MDT 10:19 PM MDT
Moon 12:25 PM MDT (8/2) 11:24 PM MDT (8/2)
Length of Visible Light 15h 37m
Length of Day
14h 32m
Waxing Crescent, 37% of the Moon is Illuminated
Aug 2
Waxing Crescent
Aug 3
First Quarter
Aug 10
Full
Aug 17
Last Quarter
Aug 25
New

Hourly Weather History & Observations

Time (MDT) Temp. Dew Point Humidity Pressure Visibility Wind Dir Wind Speed Gust Speed Precip Events Conditions
12:15 AM 64.4 °F 42.8 °F 45% 30.18 in 10.0 mi North 8.1 mph - N/A   Clear
12:35 AM 64.4 °F 42.8 °F 45% 30.19 in 10.0 mi North 9.2 mph - N/A   Clear
12:55 AM 64.4 °F 42.8 °F 45% 30.19 in 10.0 mi NNE 6.9 mph - N/A   Clear
1:15 AM 62.6 °F 42.8 °F 48% 30.19 in 10.0 mi North 8.1 mph - N/A   Clear
1:35 AM 60.8 °F 42.8 °F 52% 30.19 in 10.0 mi Calm Calm - N/A   Clear
2:35 AM 62.6 °F 42.8 °F 48% 30.17 in 10.0 mi North 9.2 mph - N/A   Clear
2:55 AM 62.6 °F 42.8 °F 48% 30.17 in 10.0 mi North 10.4 mph - N/A   Clear
3:15 AM 60.8 °F 42.8 °F 52% 30.18 in 10.0 mi North 8.1 mph - N/A   Clear
3:35 AM 60.8 °F 42.8 °F 52% 30.18 in 10.0 mi Calm Calm - N/A   Clear
3:55 AM 59.0 °F 42.8 °F 55% 30.18 in 10.0 mi North 9.2 mph - N/A   Clear
4:15 AM 60.8 °F 42.8 °F 52% 30.18 in 10.0 mi NNE 9.2 mph - N/A   Clear
4:35 AM 59.0 °F 42.8 °F 55% 30.19 in 10.0 mi North - - N/A   Clear
4:55 AM 59.0 °F 42.8 °F 55% 30.19 in 10.0 mi Calm Calm - N/A   Clear
5:15 AM 59.0 °F 41.0 °F 51% 30.19 in 10.0 mi Calm Calm - N/A   Clear
5:35 AM 57.2 °F 42.8 °F 59% 30.20 in 10.0 mi North 9.2 mph - N/A   Clear
5:55 AM 59.0 °F 41.0 °F 51% 30.20 in 10.0 mi North 6.9 mph - N/A   Clear
6:15 AM 59.0 °F 41.0 °F 51% 30.21 in 10.0 mi NNE 6.9 mph - N/A   Clear
6:35 AM 59.0 °F 42.8 °F 55% 30.21 in 10.0 mi Calm Calm - N/A   Clear
6:55 AM 60.8 °F 42.8 °F 52% 30.21 in 10.0 mi North 6.9 mph - N/A   Clear
7:15 AM 59.0 °F 46.4 °F 63% 30.21 in 10.0 mi Calm Calm - N/A   Clear
7:35 AM 64.4 °F 42.8 °F 45% 30.21 in 10.0 mi North - - N/A   Clear
7:55 AM 69.8 °F 41.0 °F 35% 30.21 in 10.0 mi Calm Calm - N/A   Clear
8:15 AM 71.6 °F 41.0 °F 33% 30.22 in 10.0 mi Calm Calm - N/A   Clear
8:35 AM 71.6 °F 44.6 °F 38% 30.22 in 10.0 mi South 4.6 mph - N/A   Clear
8:55 AM 71.6 °F 42.8 °F 35% 30.22 in 10.0 mi SSE 3.5 mph - N/A   Clear
9:15 AM 73.4 °F 42.8 °F 33% 30.23 in 10.0 mi South 3.5 mph - N/A   Clear
9:35 AM 75.2 °F 42.8 °F 31% 30.23 in 10.0 mi North - - N/A   Clear
9:55 AM 77.0 °F 41.0 °F 28% 30.23 in 10.0 mi North - - N/A   Clear
10:15 AM 78.8 °F 41.0 °F 26% 30.22 in 10.0 mi Calm Calm - N/A   Clear
10:35 AM 80.6 °F 41.0 °F 24% 30.22 in 10.0 mi West 4.6 mph - N/A   Clear
10:55 AM 82.4 °F 37.4 °F 20% 30.22 in 10.0 mi West 5.8 mph - N/A   Clear
11:15 AM 82.4 °F 35.6 °F 19% 30.22 in 10.0 mi NW 5.8 mph - N/A   Clear
11:35 AM 82.4 °F 33.8 °F 17% 30.22 in 10.0 mi North - - N/A   Clear
11:55 AM 86.0 °F 30.2 °F 13% 30.21 in 10.0 mi NW 10.4 mph - N/A   Clear
12:15 PM 86.0 °F 30.2 °F 13% 30.20 in 10.0 mi West 3.5 mph - N/A   Clear
12:35 PM 86.0 °F 30.2 °F 13% 30.20 in 10.0 mi WNW 9.2 mph - N/A   Clear
12:55 PM 87.8 °F 30.2 °F 13% 30.19 in 10.0 mi NW 10.4 mph - N/A   Clear
1:16 PM 86.0 °F 28.4 °F 12% 30.20 in 10.0 mi WNW 5.8 mph - N/A   Clear
1:55 PM 86.0 °F 30.2 °F 13% 30.19 in 10.0 mi NW 11.5 mph 17.3 mph N/A   Clear
2:15 PM 84.2 °F 30.2 °F 14% 30.19 in 10.0 mi North 9.2 mph 19.6 mph N/A   Clear
2:35 PM 84.2 °F 32.0 °F 15% 30.19 in 10.0 mi North - - N/A   Clear
2:55 PM 84.2 °F 30.2 °F 14% 30.18 in 10.0 mi NW 4.6 mph - N/A   Clear
3:15 PM 84.2 °F 32.0 °F 15% 30.18 in 10.0 mi WNW 6.9 mph - N/A   Clear
3:35 PM 80.6 °F 26.6 °F 14% 30.19 in 10.0 mi North - - N/A Rain Light Rain
3:55 PM 82.4 °F 32.0 °F 16% 30.19 in 10.0 mi North 12.7 mph 25.3 mph N/A   Scattered Clouds
4:15 PM 86.0 °F 32.0 °F 14% 30.18 in 10.0 mi NNW 10.4 mph - N/A   Clear
4:35 PM 84.2 °F 33.8 °F 16% 30.18 in 10.0 mi North 8.1 mph - N/A   Clear
4:55 PM 84.2 °F 33.8 °F 16% 30.17 in 10.0 mi North 8.1 mph - N/A   Clear
5:15 PM 82.4 °F 33.8 °F 17% 30.17 in 10.0 mi North - - N/A   Clear
5:35 PM 82.4 °F 33.8 °F 17% 30.17 in 10.0 mi North - - N/A   Clear
5:55 PM 82.4 °F 33.8 °F 17% 30.17 in 10.0 mi North 6.9 mph - N/A   Clear
6:15 PM 82.4 °F 33.8 °F 17% 30.17 in 10.0 mi North - - N/A   Clear
6:35 PM 82.4 °F 37.4 °F 20% 30.17 in 10.0 mi East 6.9 mph - N/A   Clear
6:55 PM 80.6 °F 39.2 °F 23% 30.17 in 10.0 mi East 5.8 mph - N/A   Clear
7:15 PM 80.6 °F 39.2 °F 23% 30.17 in 10.0 mi ESE 4.6 mph - N/A   Clear
7:35 PM 80.6 °F 41.0 °F 24% 30.17 in 10.0 mi East 6.9 mph - N/A   Clear
7:55 PM 78.8 °F 42.8 °F 28% 30.17 in 10.0 mi East 5.8 mph - N/A   Clear
8:15 PM 77.0 °F 42.8 °F 29% 30.17 in 10.0 mi SE 8.1 mph - N/A   Clear
8:35 PM 73.4 °F 44.6 °F 36% 30.17 in 10.0 mi ESE 10.4 mph - N/A   Clear
8:55 PM 73.4 °F 44.6 °F 36% 30.17 in 10.0 mi SE 6.9 mph - N/A   Clear
9:15 PM 71.6 °F 44.6 °F 38% 30.18 in 10.0 mi SE 8.1 mph - N/A   Clear
9:35 PM 71.6 °F 44.6 °F 38% 30.19 in 10.0 mi ESE 8.1 mph - N/A   Clear
9:55 PM 69.8 °F 44.6 °F 40% 30.20 in 10.0 mi ESE 5.8 mph - N/A   Clear
10:35 PM 71.6 °F 44.6 °F 38% 30.19 in 10.0 mi North - - N/A   Clear
10:55 PM 69.8 °F 44.6 °F 40% 30.19 in 10.0 mi East 8.1 mph - N/A   Clear
11:15 PM 69.8 °F 44.6 °F 40% 30.19 in 10.0 mi North - - N/A   Clear
11:55 PM 69.8 °F 44.6 °F 40% 30.19 in 10.0 mi East 12.7 mph - N/A   Clear